Weather History for Middlesboro, KY

Change the Weather History Date:

Thursday, December 22, 2011

  Actual Average (KLOZ) Record (KLOZ)
Temperature  
Mean Temperature 51 °F 37 °F  
Max Temperature 60 °F 46 °F 70 °F (2013)
Min Temperature 42 °F 28 °F -11 °F (1989)
Degree Days  
Heating Degree Days 14 28  
Month to date heating degree days 564  
Since 1 July heating degree days 1394  
Cooling Degree Days 0 0  
Month to date cooling degree days 0  
Growing Degree Days 1 (Base 50)    
Moisture  
Dew Point 47 °F    
Average Humidity 94    
Maximum Humidity 100    
Minimum Humidity 72    
Precipitation  
Precipitation 0.68 in 0.13 in 1.64 in (1990)
Month to date precipitation 3.10  
Sea Level Pressure  
Sea Level Pressure 30.00 in    
Wind  
Wind Speed 1 mph (NNW)    
Max Wind Speed 14 mph    
Max Gust Speed 22 mph    
Visibility 7 miles    
Events Fog , Rain    
T = Trace of Precipitation, MM = Missing Value Source: NWS Daily Summary

Daily Weather History Graph

Daily Weather History Graph

Search for Another Location

Airport:

Trip Planner

Search our weather history database for the weather conditions in past years. The results will help you decide how hot, cold, wet, or windy it might be!

Date:

Astronomy

Dec. 22, 2011 Rise Set
Actual Time 6:43 AM CST 4:23 PM CST
Civil Twilight 6:14 AM CST 4:52 PM CST
Nautical Twilight 5:42 AM CST 5:24 PM CST
Astronomical Twilight 5:10 AM CST 5:56 PM CST
Moon 4:26 AM CST (12/22) 2:32 PM CST (12/22)
Length of Visible Light 10h 37m
Length of Day
9h 39m
Waning Crescent, 5% of the Moon is Illuminated
Dec 22
Waning Crescent
Dec 24
New
Jan 1
First Quarter
Jan 9
Full
Jan 16
Last Quarter

Hourly Weather History & Observations

Time (CST) Temp. Windchill Dew Point Humidity Pressure Visibility Wind Dir Wind Speed Gust Speed Precip Events Conditions
12:15 AM 42.8 °F - 42.8 °F 100% 30.02 in 0.2 mi Calm Calm - N/A Fog Fog
12:35 AM 42.8 °F 41.1 °F 42.8 °F 100% 30.02 in 0.5 mi East 3.5 mph - N/A Fog Fog
1:15 AM 42.8 °F 41.1 °F 42.8 °F 100% 30.03 in 0.2 mi NW 3.5 mph - N/A Fog Fog
1:35 AM 42.8 °F - 42.8 °F 100% 30.04 in 0.2 mi Calm Calm - N/A Fog Fog
1:55 AM 42.8 °F - 41.0 °F 93% 30.05 in 0.8 mi Calm Calm - N/A   Overcast
2:15 AM 42.8 °F - 42.8 °F 100% 30.06 in 1.2 mi Calm Calm - N/A   Overcast
2:35 AM 42.8 °F - 42.8 °F 100% 30.05 in 1.0 mi Calm Calm - N/A   Overcast
2:55 AM 42.8 °F - 42.8 °F 100% 30.05 in 1.5 mi Calm Calm - N/A   Overcast
3:15 AM 42.8 °F - 42.8 °F 100% 30.05 in 4.0 mi Calm Calm - N/A   Overcast
3:35 AM 42.8 °F - 42.8 °F 100% 30.06 in 4.0 mi Calm Calm - N/A   Mostly Cloudy
3:55 AM 42.8 °F - 42.8 °F 100% 30.06 in 7.0 mi Calm Calm - N/A   Overcast
4:15 AM 42.8 °F - 42.8 °F 100% 30.06 in 5.0 mi Calm Calm - N/A   Scattered Clouds
4:35 AM 42.8 °F - 42.8 °F 100% 30.06 in 7.0 mi Calm Calm - N/A   Clear
4:55 AM 42.8 °F - 42.8 °F 100% 30.07 in 5.0 mi Calm Calm - N/A   Clear
5:15 AM 44.6 °F - 42.8 °F 93% 30.07 in 5.0 mi Calm Calm - N/A   Clear
5:35 AM 44.6 °F - 42.8 °F 93% 30.07 in 7.0 mi Calm Calm - N/A   Clear
5:55 AM 44.6 °F - 42.8 °F 93% 30.08 in 5.0 mi Calm Calm - N/A   Clear
6:15 AM 44.6 °F - 42.8 °F 93% 30.08 in 7.0 mi Calm Calm - N/A   Scattered Clouds
6:35 AM 44.6 °F - 42.8 °F 93% 30.08 in 7.0 mi Calm Calm - N/A   Mostly Cloudy
6:55 AM 44.6 °F - 42.8 °F 93% 30.07 in 7.0 mi Calm Calm - N/A   Mostly Cloudy
7:15 AM 44.6 °F - 42.8 °F 93% 30.07 in 5.0 mi Calm Calm - N/A   Mostly Cloudy
7:35 AM 44.6 °F - 42.8 °F 93% 30.07 in 5.0 mi Calm Calm - N/A   Mostly Cloudy
7:55 AM 44.6 °F - 44.6 °F 100% 30.07 in 7.0 mi Calm Calm - N/A   Mostly Cloudy
8:15 AM 44.6 °F - 44.6 °F 100% 30.08 in 7.0 mi Calm Calm - N/A   Scattered Clouds
8:35 AM 46.4 °F - 44.6 °F 93% 30.08 in 10.0 mi Calm Calm - N/A   Scattered Clouds
8:55 AM 46.4 °F - 46.4 °F 100% 30.08 in 10.0 mi Calm Calm - N/A   Overcast
9:15 AM 46.4 °F - 46.4 °F 100% 30.08 in 10.0 mi Calm Calm - N/A   Mostly Cloudy
10:15 AM 50.0 °F - 48.2 °F 94% 30.06 in 10.0 mi Calm Calm - N/A   Mostly Cloudy
10:35 AM 51.8 °F - 50.0 °F 94% 30.05 in 10.0 mi Calm Calm - N/A   Scattered Clouds
10:55 AM 51.8 °F - 50.0 °F 94% 30.04 in 10.0 mi Calm Calm - N/A   Mostly Cloudy
11:15 AM 53.6 °F - 51.8 °F 94% 30.01 in 10.0 mi Calm Calm - N/A   Scattered Clouds
11:35 AM 53.6 °F - 53.6 °F 100% 29.99 in 10.0 mi Calm Calm - N/A   Scattered Clouds
11:55 AM 57.2 °F - 50.0 °F 77% 29.97 in 10.0 mi Calm Calm - N/A   Scattered Clouds
12:15 PM 60.8 °F - 51.8 °F 72% 29.95 in 10.0 mi Calm Calm - N/A   Scattered Clouds
12:35 PM 60.8 °F - 51.8 °F 72% 29.93 in 10.0 mi Calm Calm - N/A   Mostly Cloudy
12:55 PM 60.8 °F - 53.6 °F 77% 29.90 in 10.0 mi Calm Calm - N/A   Mostly Cloudy
1:15 PM 60.8 °F - 53.6 °F 77% 29.88 in 10.0 mi SSE 3.5 mph - N/A   Overcast
1:35 PM 60.8 °F - 53.6 °F 77% 29.86 in 10.0 mi Calm Calm - N/A   Overcast
1:55 PM 60.8 °F - 53.6 °F 77% 29.84 in 10.0 mi Calm Calm - N/A   Overcast
2:15 PM 60.8 °F - 53.6 °F 77% 29.84 in 10.0 mi NW 4.6 mph - N/A Rain Light Rain
2:35 PM 57.2 °F - 55.4 °F 94% 29.86 in 7.0 mi NW 13.8 mph 19.6 mph 0.02 in Rain Heavy Rain
2:55 PM 53.6 °F - 51.8 °F 94% 29.93 in 2.0 mi West 5.8 mph 21.9 mph 0.11 in Rain Rain
3:35 PM 51.8 °F - 51.8 °F 100% 29.91 in 7.0 mi East 8.1 mph - 0.19 in Rain Rain
3:55 PM 50.0 °F - 48.2 °F 94% 29.92 in 7.0 mi NE 11.5 mph - 0.05 in Rain Heavy Rain
4:15 PM 50.0 °F - 48.2 °F 94% 29.94 in 2.0 mi North 5.8 mph - 0.20 in Rain Heavy Rain
4:35 PM 48.2 °F - 48.2 °F 100% 29.95 in 3.0 mi Calm Calm - 0.32 in Rain Rain
4:55 PM 48.2 °F - 48.2 °F 100% 29.94 in 7.0 mi Calm Calm - 0.02 in Rain Rain
5:15 PM 48.2 °F - 48.2 °F 100% 29.93 in 10.0 mi Calm Calm - 0.03 in Rain Rain
5:35 PM 48.2 °F - 48.2 °F 100% 29.93 in 7.0 mi West 3.5 mph - 0.04 in Rain Rain
5:55 PM 50.0 °F - 48.2 °F 94% 29.93 in 7.0 mi Calm Calm - N/A Rain Rain
6:35 PM 48.2 °F - 48.2 °F 100% 29.87 in 10.0 mi Calm Calm - 0.02 in Rain Light Rain
6:55 PM 50.0 °F - 48.2 °F 94% 29.92 in 10.0 mi NW 4.6 mph - N/A   Overcast
7:15 PM 50.0 °F - 48.2 °F 94% 29.95 in 10.0 mi NNW 4.6 mph - N/A Rain Light Rain
7:35 PM 50.0 °F - 48.2 °F 94% 29.97 in 7.0 mi WNW 3.5 mph - N/A Rain Rain
7:55 PM 50.0 °F - 48.2 °F 94% 29.99 in 10.0 mi NNW 3.5 mph - N/A   Light Drizzle
8:15 PM 48.2 °F - 48.2 °F 100% 29.99 in 7.0 mi NNE 5.8 mph - N/A Rain Rain
8:35 PM 50.0 °F - 48.2 °F 94% 30.01 in 10.0 mi North 11.5 mph - N/A   Overcast
8:55 PM 50.0 °F - 48.2 °F 94% 30.02 in 10.0 mi North 9.2 mph - N/A   Overcast
9:15 PM 48.2 °F - 48.2 °F 100% 30.03 in 10.0 mi North 9.2 mph 16.1 mph N/A   Overcast
9:35 PM 48.2 °F - 48.2 °F 100% 30.04 in 10.0 mi NNW 5.8 mph - N/A   Overcast
9:55 PM 48.2 °F - 48.2 °F 100% 30.05 in 10.0 mi North 8.1 mph - N/A   Overcast
10:15 PM 48.2 °F - 46.4 °F 93% 30.06 in 10.0 mi North 6.9 mph - N/A   Overcast
10:35 PM 48.2 °F - 46.4 °F 93% 30.06 in 10.0 mi North 5.8 mph - N/A   Overcast
10:55 PM 48.2 °F - 46.4 °F 93% 30.05 in 10.0 mi North 4.6 mph - N/A   Overcast
11:15 PM 48.2 °F - 46.4 °F 93% 30.07 in 10.0 mi NNW 3.5 mph - N/A   Overcast
11:35 PM 48.2 °F - 46.4 °F 93% 30.08 in 10.0 mi NNW 6.9 mph - N/A   Overcast